Location: Newark
(41.0400°S, 62.7845°W)
Time: 08:47:49
(UTC+00:00)

Transit 2A - Pass Details

Date: 08 December 2021
Orbit: 591 x 967 km, 66.7° (Epoch: 19 January)

Event Time Altitude Azimuth Distance (km) Brightness Sun altitude
Rises 13:57:00 0° 5° (N) 3,231 9.4 57.9°
Reaches altitude 10° 13:59:53 10° 18° (NNE) 2,243 8.9 58.4°
Maximum altitude 14:03:50 23° 70° (ENE) 1,463 8.5 59.0°
Drops below altitude 10° 14:07:33 10° 122° (ESE) 2,094 8.6 59.7°
Sets 14:10:08 0° 136° (SE) 2,964 9.2 60.1°
